| time (UTC) | temp F | wind direction | speed MPH | gust MPH | rain 1hr in | rain 24hr in | rain mn in | humidity % | barometer mb |
| 20260503014002 | 45 | 178 | 5.0 | 8.0 | 0.00 | 0.06 | 0.06 | 92 | 1010.2 |
| 20260503013003 | 45 | 161 | 6.0 | 8.0 | 0.00 | 0.06 | 0.06 | 92 | 1010.4 |
| 20260503012004 | 45 | 140 | 3.0 | 4.0 | 0.00 | 0.06 | 0.06 | 92 | 1010.2 |
| 20260503011003 | 45 | 147 | 3.0 | 6.0 | 0.00 | 0.06 | 0.06 | 92 | 1010.2 |
| 20260503010024 | 44 | 136 | 5.0 | 6.0 | 0.00 | 0.06 | 0.06 | 93 | 1010.2 |
| 20260503005002 | 44 | 122 | 4.0 | 5.0 | 0.00 | 0.06 | 0.06 | 92 | 1010.2 |
| 20260503004003 | 44 | 88 | 1.0 | 3.0 | 0.00 | 0.06 | 0.06 | 92 | 1010.2 |
| 20260503003002 | 44 | 87 | 1.0 | 3.0 | 0.00 | 0.06 | 0.06 | 92 | 1010.2 |
| 20260503002002 | 44 | 103 | 2.0 | 8.0 | 0.00 | 0.06 | 0.06 | 92 | 1010.2 |
| 20260503001003 | 45 | 91 | 2.0 | 5.0 | 0.00 | 0.06 | 0.06 | 92 | 1010.0 |
| 20260503000003 | 45 | 99 | 1.0 | 6.0 | 0.00 | 0.06 | 0.06 | 92 | 1010.1 |
| 20260502235024 | 45 | 103 | 5.0 | 8.0 | 0.00 | 0.06 | 0.06 | 92 | 1010.0 |
| 20260502234003 | 45 | 98 | 6.0 | 8.0 | 0.00 | 0.06 | 0.06 | 92 | 1009.9 |
| 20260502233024 | 45 | 96 | 5.0 | 7.0 | 0.00 | 0.06 | 0.06 | 92 | 1010.1 |
| 20260502232024 | 45 | 95 | 4.0 | 7.0 | 0.00 | 0.06 | 0.06 | 93 | 1010.1 |
| 20260502231002 | 45 | 107 | 3.0 | 4.0 | 0.00 | 0.06 | 0.06 | 93 | 1010.2 |
| 20260502230003 | 45 | 91 | 3.0 | 4.0 | 0.00 | 0.06 | 0.06 | 93 | 1010.1 |
| 20260502225003 | 45 | 105 | 3.0 | 5.0 | 0.00 | 0.06 | 0.06 | 93 | 1010.1 |
| 20260502224023 | 45 | 86 | 3.0 | 7.0 | 0.00 | 0.06 | 0.06 | 93 | 1010.0 |
| 20260502223024 | 45 | 42 | 5.0 | 7.0 | 0.00 | 0.06 | 0.06 | 93 | 1010.1 |
| 20260502222003 | 45 | 41 | 7.0 | 8.0 | 0.00 | 0.06 | 0.06 | 93 | 1010.0 |
| 20260502221003 | 45 | 50 | 5.0 | 8.0 | 0.00 | 0.06 | 0.06 | 92 | 1010.0 |
| 20260502220003 | 45 | 58 | 6.0 | 8.0 | 0.00 | 0.06 | 0.06 | 92 | 1010.1 |
| 20260502215023 | 45 | 46 | 6.0 | 8.0 | 0.00 | 0.06 | 0.06 | 92 | 1010.0 |
| 20260502214003 | 45 | 38 | 3.0 | 8.0 | 0.00 | 0.06 | 0.06 | 93 | 1010.1 |
| 20260502213004 | 45 | 77 | 4.0 | 6.0 | 0.00 | 0.06 | 0.06 | 92 | 1010.2 |
| 20260502212045 | 45 | 47 | 4.0 | 6.0 | 0.00 | 0.06 | 0.06 | 92 | 1010.2 |
| 20260502211003 | 45 | 26 | 4.0 | 5.0 | 0.00 | 0.06 | 0.06 | 92 | 1010.2 |
| 20260502210003 | 45 | 25 | 3.0 | 6.0 | 0.00 | 0.06 | 0.06 | 92 | 1010.1 |
| 20260502205003 | 45 | 50 | 2.0 | 6.0 | 0.00 | 0.06 | 0.06 | 92 | 1010.3 |
| 20260502204024 | 45 | 78 | 3.0 | 6.0 | 0.00 | 0.06 | 0.06 | 92 | 1010.4 |
| 20260502203002 | 46 | 60 | 2.0 | 4.0 | 0.00 | 0.06 | 0.06 | 92 | 1010.5 |
| 20260502202003 | 46 | 68 | 3.0 | 4.0 | 0.00 | 0.06 | 0.06 | 92 | 1010.4 |
| 20260502201003 | 46 | 75 | 3.0 | 5.0 | 0.00 | 0.06 | 0.06 | 92 | 1010.4 |
| 20260502200003 | 46 | 102 | 3.0 | 6.0 | 0.00 | 0.06 | 0.06 | 92 | 1010.4 |
| 20260502195003 | 46 | 102 | 4.0 | 5.0 | 0.00 | 0.06 | 0.06 | 92 | 1010.5 |
| 20260502194003 | 46 | 99 | 3.0 | 6.0 | 0.00 | 0.06 | 0.06 | 92 | 1010.3 |
| 20260502193024 | 46 | 120 | 6.0 | 9.0 | 0.00 | 0.06 | 0.06 | 91 | 1010.7 |
| 20260502192003 | 46 | 81 | 2.0 | 4.0 | 0.00 | 0.06 | 0.06 | 92 | 1010.6 |
| 20260502191002 | 46 | 78 | 1.0 | 3.0 | 0.00 | 0.06 | 0.06 | 92 | 1010.8 |
| 20260502190003 | 45 | 110 | 2.0 | 6.0 | 0.00 | 0.06 | 0.06 | 92 | 1010.5 |
| 20260502185003 | 45 | 132 | 6.0 | 8.0 | 0.00 | 0.06 | 0.06 | 91 | 1011.0 |
| 20260502184003 | 45 | 158 | 6.0 | 9.0 | 0.00 | 0.06 | 0.06 | 91 | 1011.3 |
| 20260502183003 | 45 | 145 | 8.0 | 10.0 | 0.00 | 0.06 | 0.06 | 91 | 1011.4 |
| 20260502182002 | 45 | 127 | 9.0 | 12.0 | 0.00 | 0.06 | 0.06 | 90 | 1011.3 |
| 20260502181003 | 45 | 116 | 10.0 | 13.0 | 0.00 | 0.06 | 0.06 | 91 | 1011.2 |
| 20260502164003 | 44 | 106 | 16.0 | 20.0 | 0.00 | 0.05 | 0.05 | 88 | 1010.8 |
| 20260502163003 | 44 | 103 | 18.0 | 22.0 | 0.00 | 0.05 | 0.05 | 88 | 1010.8 |
| 20260502162024 | 44 | 104 | 18.0 | 22.0 | 0.00 | 0.05 | 0.05 | 88 | 1011.0 |
| 20260502161003 | 44 | 102 | 20.0 | 23.0 | 0.00 | 0.05 | 0.05 | 88 | 1011.0 |
| 20260502152003 | 45 | 96 | 19.0 | 22.0 | 0.02 | 0.05 | 0.05 | 85 | 1011.8 |
| 20260502151003 | 45 | 91 | 17.0 | 25.0 | 0.01 | 0.04 | 0.04 | 85 | 1012.0 |
| 20260502123003 | 45 | 81 | 8.0 | 10.0 | 0.00 | 0.00 | 0.00 | 84 | 1013.0 |
| 20260502122003 | 45 | 79 | 9.0 | 10.0 | 0.00 | 0.00 | 0.00 | 84 | 1012.7 |
| 20260502121003 | 45 | 78 | 9.0 | 11.0 | 0.00 | 0.00 | 0.00 | 84 | 1012.5 |
| 20260502115003 | 45 | 51 | 6.0 | 9.0 | 0.00 | 0.00 | 0.00 | 83 | 1012.3 |
| 20260502113003 | 45 | 97 | 9.0 | 13.0 | 0.00 | 0.00 | 0.00 | 84 | 1012.3 |
| 20260502112003 | 45 | 101 | 11.0 | 15.0 | 0.00 | 0.00 | 0.00 | 84 | 1011.9 |
| 20260502111002 | 45 | 103 | 14.0 | 17.0 | 0.00 | 0.00 | 0.00 | 84 | 1011.7 |
| 20260502110003 | 45 | 101 | 13.0 | 15.0 | 0.00 | 0.00 | 0.00 | 85 | 1011.8 |
| 20260502105003 | 44 | 110 | 13.0 | 15.0 | 0.00 | 0.00 | 0.00 | 84 | 1012.0 |
| 20260502104002 | 44 | 109 | 12.0 | 14.0 | 0.00 | 0.00 | 0.00 | 84 | 1011.9 |
| 20260502103003 | 44 | 110 | 11.0 | 13.0 | 0.00 | 0.00 | 0.00 | 85 | 1011.9 |
| 20260502102002 | 44 | 111 | 10.0 | 12.0 | 0.00 | 0.00 | 0.00 | 85 | 1011.9 |
| 20260502101003 | 44 | 112 | 11.0 | 13.0 | 0.00 | 0.00 | 0.00 | 84 | 1011.8 |
| 20260502091003 | 45 | 136 | 9.0 | 10.0 | 0.00 | 0.00 | 0.00 | 80 | 1012.1 |
| 20260502071003 | 45 | 58 | 5.0 | 7.0 | 0.00 | 0.00 | 0.00 | 73 | 1011.2 |
| 20260502070044 | 45 | 54 | 6.0 | 8.0 | 0.00 | 0.00 | 0.00 | 71 | 1011.1 |
| 20260502065024 | 46 | 34 | 6.0 | 8.0 | 0.00 | 0.00 | 0.00 | 69 | 1010.9 |
| 20260502064002 | 46 | 37 | 8.0 | 9.0 | 0.00 | 0.00 | 0.00 | 66 | 1011.0 |
| 20260502063003 | 45 | 41 | 7.0 | 9.0 | 0.00 | 0.00 | 0.00 | 65 | 1010.7 |
| 20260502062003 | 45 | 32 | 8.0 | 10.0 | 0.00 | 0.00 | 0.00 | 66 | 1010.7 |
| 20260502061024 | 43 | 33 | 7.0 | 9.0 | 0.00 | 0.00 | 0.00 | 72 | 1010.8 |
| 20260502060003 | 44 | 30 | 5.0 | 8.0 | 0.00 | 0.00 | 0.00 | 71 | 1010.9 |
| 20260502055002 | 45 | 31 | 6.0 | 8.0 | 0.00 | 0.00 | 0.00 | 72 | 1010.8 |
| 20260502054003 | 45 | 37 | 6.0 | 8.0 | 0.00 | 0.00 | 0.00 | 73 | 1010.9 |
| 20260502053024 | 44 | 42 | 7.0 | 8.0 | 0.00 | 0.00 | 0.00 | 73 | 1010.7 |
| 20260502052003 | 43 | 36 | 5.0 | 8.0 | 0.00 | 0.00 | 0.00 | 73 | 1010.6 |
| 20260502051003 | 44 | 50 | 4.0 | 6.0 | 0.00 | 0.00 | 0.00 | 71 | 1010.5 |
| 20260502050002 | 45 | 52 | 5.0 | 6.0 | 0.00 | 0.00 | 0.00 | 67 | 1010.6 |
| 20260502045003 | 45 | 37 | 5.0 | 7.0 | 0.00 | 0.00 | 0.00 | 64 | 1010.7 |
| 20260502044002 | 46 | 30 | 5.0 | 6.0 | 0.00 | 0.00 | 0.00 | 58 | 1010.7 |
| 20260502043003 | 46 | 32 | 5.0 | 6.0 | 0.00 | 0.00 | 0.00 | 55 | 1010.7 |
| 20260502042003 | 47 | 31 | 5.0 | 6.0 | 0.00 | 0.00 | 0.00 | 53 | 1010.7 |
| 20260502041002 | 47 | 32 | 4.0 | 7.0 | 0.00 | 0.00 | 0.00 | 52 | 1010.7 |
| 20260502040003 | 47 | 22 | 5.0 | 8.0 | 0.00 | 0.00 | 0.00 | 51 | 1010.6 |
| 20260502035003 | 47 | 15 | 5.0 | 9.0 | 0.00 | 0.00 | 0.00 | 52 | 1010.5 |
| 20260502034002 | 48 | 5 | 5.0 | 8.0 | 0.00 | 0.00 | 0.00 | 52 | 1010.5 |
| 20260502033024 | 47 | 353 | 4.0 | 9.0 | 0.00 | 0.00 | 0.00 | 52 | 1010.5 |
| 20260502032002 | 47 | 342 | 4.0 | 8.0 | 0.00 | 0.00 | 0.00 | 52 | 1010.5 |
| 20260502031003 | 47 | 350 | 4.0 | 8.0 | 0.00 | 0.00 | 0.00 | 52 | 1010.4 |
| 20260502030003 | 47 | 344 | 4.0 | 8.0 | 0.00 | 0.00 | 0.00 | 53 | 1010.3 |
| 20260502025003 | 47 | 337 | 4.0 | 7.0 | 0.00 | 0.00 | 0.00 | 54 | 1010.4 |
| 20260502024003 | 47 | 340 | 4.0 | 6.0 | 0.00 | 0.00 | 0.00 | 54 | 1010.2 |
| 20260502023002 | 48 | 341 | 4.0 | 6.0 | 0.00 | 0.00 | 0.00 | 54 | 1010.3 |
| 20260502022003 | 48 | 336 | 4.0 | 8.0 | 0.00 | 0.00 | 0.00 | 53 | 1010.3 |
| 20260502021003 | 49 | 338 | 4.0 | 7.0 | 0.00 | 0.00 | 0.00 | 52 | 1010.2 |
| 20260502020003 | 49 | 352 | 4.0 | 7.0 | 0.00 | 0.00 | 0.00 | 53 | 1010.1 |
| 20260502015002 | 49 | 330 | 5.0 | 10.0 | 0.00 | 0.00 | 0.00 | 55 | 1010.2 |